EW7682 Weather Reports


Display with metric or nautical units.
time (UTC)temp
F
wind
direction
speed
MPH
gust
MPH
rain 1hr
in
rain 24hr
in
rain mn
in
humidity
%
barometer
mb
20200225101708 43 219 0.0 0.0 0.00 0.00 0.00 92 1013.0
20200225100111 43 219 0.0 0.0 0.00 0.00 0.00 91 1013.1
20200225094654 43 219 0.0 0.0 0.00 0.00 0.00 91 1013.3
20200225093108 43 219 0.0 0.0 0.00 0.00 0.00 91 1013.3
20200225091622 43 240 0.0 0.0 0.00 0.00 0.00 91 1013.1
20200225090153 43 149 0.0 1.0 0.00 0.00 0.00 91 1013.1
20200225084810 43 210 0.0 0.0 0.00 0.00 0.00 91 1013.1
20200225083137 44 247 0.0 0.0 0.00 0.00 0.00 91 1013.1
20200225081559 44 196 0.0 0.0 0.00 0.00 0.00 91 1013.2
20200225080108 44 232 0.0 0.0 0.00 0.00 0.00 91 1013.2
20200225074731 44 240 0.0 0.0 0.00 0.00 0.00 91 1013.2
20200225073108 44 245 0.0 2.0 0.00 0.00 0.00 90 1013.5
20200225071603 44 165 0.0 0.0 0.00 0.00 0.00 90 1013.6
20200225070033 44 208 0.0 0.0 0.00 0.00 0.00 90 1013.7
20200225064549 44 245 0.0 4.0 0.00 0.00 0.00 90 1013.7
20200225063040 44 198 2.0 6.0 0.00 0.00 0.00 89 1013.9
20200225061535 44 245 1.0 6.0 0.00 0.00 0.00 89 1013.7
20200225060043 44 150 1.0 4.0 0.00 0.00 0.00 89 1014.0
20200225054608 44 254 0.0 2.0 0.00 0.00 0.00 88 1014.0
20200225053021 44 181 0.0 2.0 0.00 0.00 0.00 87 1014.1
20200225051548 45 240 0.0 2.0 0.00 0.00 0.00 86 1014.2
20200225050025 45 241 0.0 2.0 0.00 0.00 0.00 84 1014.3
20200225044521 45 238 0.0 3.0 0.00 0.00 0.00 82 1014.3
20200225043010 46 164 0.0 3.0 0.00 0.00 0.00 81 1014.4
20200225041532 46 240 0.0 2.0 0.00 0.00 0.00 81 1014.6
20200225040009 46 239 0.0 3.0 0.00 0.00 0.00 81 1014.7
20200225034521 46 254 0.0 4.0 0.00 0.00 0.00 82 1015.1
20200225033043 45 221 0.0 5.0 0.00 0.00 0.00 85 1015.2
20200225031511 45 240 0.0 0.0 0.00 0.00 0.00 86 1015.1
20200225030007 45 245 0.0 0.0 0.00 0.00 0.00 86 1015.2
20200225024505 45 234 2.0 6.0 0.00 0.00 0.00 86 1015.1
20200225023004 45 255 0.0 7.0 0.00 0.00 0.00 85 1015.1
20200225021512 45 216 0.0 6.0 0.00 0.00 0.00 85 1015.1
20200225020010 45 166 0.0 3.0 0.00 0.00 0.00 84 1015.0
20200225014511 45 151 0.0 4.0 0.00 0.00 0.00 82 1014.9
20200225013010 45 259 1.0 6.0 0.00 0.00 0.00 81 1015.2
20200225011501 45 238 2.0 4.0 0.00 0.00 0.00 80 1015.3
20200225010125 45 210 1.0 8.0 0.00 0.00 0.00 76 1015.1
20200225004714 46 152 1.0 6.0 0.00 0.00 0.00 72 1015.4
20200225003148 46 145 1.0 5.0 0.00 0.00 0.00 71 1015.6
20200225001600 46 200 0.0 4.0 0.00 0.00 0.00 71 1016.1
20200225000131 46 244 0.0 3.0 0.00 0.00 0.00 72 1016.3
20200224234732 46 243 0.0 4.0 0.00 0.00 0.00 72 1016.2
20200224231635 46 146 0.0 4.0 0.00 0.00 0.00 73 1015.3
20200224230157 46 140 1.0 4.0 0.00 0.00 0.00 72 1015.0
20200224224717 47 99 0.0 5.0 0.00 0.00 0.00 70 1015.0
20200224223225 47 145 0.0 4.0 0.00 0.00 0.00 65 1015.1
20200224221639 48 207 1.0 5.0 0.00 0.00 0.00 66 1015.3
20200224220143 48 248 0.0 2.0 0.00 0.00 0.00 66 1015.3
20200224214632 48 250 2.0 6.0 0.00 0.00 0.00 66 1015.3
20200224213208 49 145 0.0 6.0 0.00 0.00 0.00 67 1015.6
20200224211722 50 216 1.0 5.0 0.00 0.00 0.00 63 1015.6
20200224210133 51 105 1.0 6.0 0.00 0.00 0.00 59 1015.7
20200224204635 51 231 1.0 4.0 0.00 0.00 0.00 57 1015.7
20200224203055 52 176 3.0 5.0 0.00 0.00 0.00 56 1015.9
20200224201719 53 110 2.0 6.0 0.00 0.00 0.00 54 1016.1
20200224200226 54 164 4.0 8.0 0.00 0.00 0.00 50 1016.3
20200224194620 55 233 3.0 6.0 0.00 0.00 0.00 48 1016.4
20200224193113 56 150 2.0 6.0 0.00 0.00 0.00 49 1016.6
20200224191605 56 226 1.0 7.0 0.00 0.00 0.00 46 1016.6
20200224190051 56 269 2.0 8.0 0.00 0.00 0.00 42 1016.7
20200224184603 57 165 3.0 8.0 0.00 0.00 0.00 41 1016.7
20200224183143 57 233 2.0 8.0 0.00 0.00 0.00 38 1016.8
20200224181541 57 266 3.0 6.0 0.00 0.00 0.00 34 1017.0
20200224180049 57 225 2.0 7.0 0.00 0.00 0.00 40 1017.0
20200224174558 58 241 3.0 10.0 0.00 0.00 0.00 42 1017.2
20200224173032 60 235 3.0 6.0 0.00 0.00 0.00 37 1017.4
20200224171531 59 81 1.0 7.0 0.00 0.00 0.00 37 1017.5
20200224170051 59 226 1.0 5.0 0.00 0.00 0.00 40 1017.6
20200224164533 58 243 2.0 7.0 0.00 0.00 0.00 41 1017.8
20200224163021 56 173 0.0 6.0 0.00 0.00 0.00 45 1017.9
20200224161509 56 231 1.0 5.0 0.00 0.00 0.00 46 1018.1
20200224160017 55 281 2.0 4.0 0.00 0.00 0.00 47 1018.3
20200224154700 54 259 0.0 3.0 0.00 0.00 0.00 50 1018.3
20200224153216 53 224 0.0 3.0 0.00 0.00 0.00 51 1018.4
20200224151637 53 248 0.0 3.0 0.00 0.00 0.00 58 1018.6
20200224150136 51 154 1.0 4.0 0.00 0.00 0.00 61 1018.7
20200224144617 49 218 0.0 4.0 0.00 0.00 0.00 64 1018.7
20200224143137 48 236 1.0 5.0 0.00 0.00 0.00 66 1018.8
20200224141706 47 228 0.0 3.0 0.00 0.00 0.00 71 1018.9
20200224140110 45 246 0.0 0.0 0.00 0.00 0.00 76 1018.9
20200224134536 44 236 0.0 0.0 0.00 0.00 0.00 80 1018.9
20200224133124 43 229 0.0 3.0 0.00 0.00 0.00 82 1018.9
20200224131539 41 146 0.0 0.0 0.00 0.00 0.00 87 1018.8
20200224130101 40 217 0.0 0.0 0.00 0.00 0.00 92 1018.9
20200224124539 37 217 0.0 0.0 0.00 0.00 0.00 95 1018.8
20200224123109 35 217 0.0 0.0 0.00 0.00 0.00 95 1018.8
20200224121553 32 217 0.0 0.0 0.00 0.00 0.00 94 1018.7
20200224120046 31 217 0.0 0.0 0.00 0.00 0.00 93 1018.7
20200224114542 32 217 0.0 0.0 0.00 0.00 0.00 93 1018.9
20200224113109 31 217 0.0 0.0 0.00 0.00 0.00 92 1018.8
20200224111524 31 217 0.0 0.0 0.00 0.00 0.00 92 1018.8
20200224110020 31 217 0.0 0.0 0.00 0.00 0.00 91 1018.8
20200224104514 32 217 0.0 0.0 0.00 0.00 0.00 91 1018.9
20200224103021 32 217 0.0 0.0 0.00 0.00 0.00 90 1018.8